Regional Weather Roundup
Issued by NWS

Home | Current Version | Previous Version | Graphics & Text | Print | Product List | Glossary On
Versions: 1 2 3 4 5 6 7 8 9 10 11 12 13 14 15 16 17 18 19 20 21 22 23 24 25 26 27 28 29 30 31 32 33 34 35 36 37 38 39 40 41 42 43 44 45 46 47 48 49 50
000
ASUS45 KBOI 281810
RWRID
WEATHER ROUNDUP FOR IDAHO
NATIONAL WEATHER SERVICE BOISE ID
1200 PM MDT MON JUL 28 2014

NOTE: "FAIR" INDICATES FEW OR NO CLOUDS BELOW 12000 FEET
WITH NO SIGNIFICANT WEATHER AND/OR OBSTRUCTIONS TO VISIBILITY

IDZ012-014-281900-
SOUTHWEST IDAHO


CITY           SKY/WX    TMP DP  RH WIND       PRES   REMARKS
BOISE          CLOUDY    89  40  17 S13G18    30.09S
CALDWELL       CLOUDY    84  48  28 SE6       30.09S
MOUNTAIN HOME  PTSUNNY   83  42  23 N7        30.10F
$$

IDZ016-017-281900-
SOUTHCENTRAL IDAHO


CITY           SKY/WX    TMP DP  RH WIND       PRES   REMARKS
BURLEY         LGT RAIN  79  51  37 S10       30.20R
JEROME         CLOUDY    81  50  33 CALM      30.19S
TWIN FALLS     CLOUDY    83  49  30 N9        30.20R
$$

IDZ019>023-281900-
SOUTHEAST IDAHO


CITY           SKY/WX    TMP DP  RH WIND       PRES   REMARKS
IDAHO FALLS    CLOUDY    87  42  20 W8        30.23S
POCATELLO      SUNNY     82  43  25 W6        30.22S
REXBURG        PTSUNNY   85  42  22 CALM      30.24S
$$

IDZ006-010-011-018-031-032-281900-
CENTRAL IDAHO MOUNTAINS


CITY           SKY/WX    TMP DP  RH WIND       PRES   REMARKS
MCCALL         PTSUNNY   77  41  27 W8        30.23S
HAILEY         CLOUDY    73  48  40 NW7       30.28F
STANLEY          N/A     69  42  37 CALM      30.37S
SALMON         CLOUDY    73  41  31 N3        30.19F
CHALLIS        CLOUDY    76  34  21 VRB3      30.28R
$$

IDZ002-004-006-007-026-281900-
NORTHERN IDAHO


CITY           SKY/WX    TMP DP  RH WIND       PRES   REMARKS
LEWISTON       PTSUNNY   88  45  22 NE5       30.04F
LOWELL           N/A     78  51  38 CALM      30.08F
COEUR D`ALENE  SUNNY     81  52  36 E10       30.12S
MULLAN PASS    PTSUNNY   73  47  39 VRB3      30.36S
$$


USA.gov is the U.S. government's official web portal to all federal, state and local government web resources and services.